Tracking 18980 objects as of 18-Feb-2018
HD Live streaming from Space Station
objects crossing your sky now

SL-24 DEB

Track SL-24 DEB now!
10-day predictions


NORAD ID: 31120
Int'l Code: 2007-012D
Perigee: 644.8 km
Apogee: 653.0 km
Inclination: 97.7 °
Period: 97.6 minutes
Semi major axis: 7019 km
RCS: 0.8959 m2 (medium)
Launch date: April 17, 2007
Source: Commonwealth of Independent States (former USSR) (CIS)
Launch site: TYURATAM MISSILE AND SPACE COMPLEX (TTMTR)

Note: This is SATELLITE DEBRIS
aabbcc
Your satellite tracking list
Your tracking list is empty




NASA's NSSDC Master Catalog

Two Line Element Set (TLE):
1 31120U 07012D   18048.64334660  .00000131  00000-0  25959-4 0  9999
2 31120  97.7424  93.0362 0005853 260.3239  99.7310 14.76062086583130
Source of the keplerian elements: AFSPC